Weather History for Pian Rosa, Italy

Change the Weather History Date:

Saturday, November 17, 2012

  Actual Average Record
Temperature  
Mean Temperature 26 °F -  
Max Temperature 28 °F 21 °F 28 °F (2012)
Min Temperature 23 °F 11 °F -11 °F (1999)
Degree Days  
Heating Degree Days 39    
Moisture  
Dew Point -17 °F    
Average Humidity 12    
Maximum Humidity 18    
Minimum Humidity 4    
Precipitation  
Precipitation 0.00 in - - ()
Sea Level Pressure  
Sea Level Pressure 30.04 in    
Wind  
Wind Speed 7 mph ()    
Max Wind Speed 14 mph    
Max Gust Speed -    
Visibility 8.6 miles    
Events      
Averages and records for this station are not official NWS values.
T = Trace of Precipitation, MM = Missing Value Source: Averaged Metar Reports

Daily Weather History Graph

Daily Weather History Graph

Search for Another Location

Airport:

Trip Planner

Search our weather history database for the weather conditions in past years. The results will help you decide how hot, cold, wet, or windy it might be!

Date:

Astronomy

Nov. 17, 2012 Rise Set
Actual Time 7:32 AM CET 4:55 PM CET
Civil Twilight 6:59 AM CET 5:27 PM CET
Nautical Twilight 6:23 AM CET 6:04 PM CET
Astronomical Twilight 5:48 AM CET 6:39 PM CET
Moon 11:05 AM CET (11/17) 8:46 PM CET (11/17)
Length of Visible Light 10h 28m
Length of Day
9h 22m
Waxing Crescent, 18% of the Moon is Illuminated
Nov 17
Waxing Crescent
Nov 20
First Quarter
Nov 28
Full
Dec 6
Last Quarter
Dec 13
New

Hourly Weather History & Observations

Time (CET) Temp. Windchill Dew Point Humidity Pressure Visibility Wind Dir Wind Speed Gust Speed Precip Events Conditions
12:55 AM 28.4 °F 22.2 °F -14.8 °F 15% 30.15 in - SSW 5.8 mph - N/A   Clear
1:00 AM 28 °F - -14 °F 6%  in 6 mi SSW 5.8 mph - -  
1:55 AM 26.6 °F 20.0 °F -13.0 °F 17% 30.18 in - South 5.8 mph - N/A   Clear
2:55 AM 28.4 °F 20.4 °F -13.0 °F 16% 30.12 in - SSW 8.1 mph - N/A   Clear
3:55 AM 26.6 °F 17.5 °F -14.8 °F 16% 30.12 in - SSW 9.2 mph - N/A   Clear
4:00 AM 27 °F - -15 °F 6%  in 6 mi SSW 9.2 mph - -  
4:55 AM 26.6 °F 22.6 °F -18.4 °F 13% 30.09 in - South 3.5 mph - N/A   Clear
5:55 AM 26.6 °F 20.0 °F -16.6 °F 14% 30.09 in - South 5.8 mph - N/A   Clear
6:55 AM 26.6 °F 19.1 °F -14.8 °F 16% 30.06 in - SSE 6.9 mph - N/A   Clear
7:00 AM 27 °F - -14 °F 6%  in 19 mi SSE 6.9 mph - -  
7:55 AM 28.4 °F 19.7 °F -14.8 °F 15% 30.06 in - South 9.2 mph - N/A   Clear
8:55 AM 28.4 °F 19.1 °F -14.8 °F 15% 30.06 in - South 10.4 mph - N/A   Clear
9:55 AM 28.4 °F 21.2 °F -13.0 °F 16% 30.04 in - South 6.9 mph - N/A   Clear
10:00 AM 28 °F - -13 °F 6%  in 31 mi South 6.9 mph - -   Clear
10:55 AM 28.4 °F 20.4 °F -14.8 °F 15% 30.04 in - South 8.1 mph - N/A   Clear
11:55 AM 28.4 °F 22.2 °F -13.0 °F 16% 30.04 in - SSW 5.8 mph - N/A   Clear
12:55 PM 28.4 °F 22.2 °F -11.2 °F 18% 30.04 in - South 5.8 mph - N/A   Clear
1:00 PM 28 °F - -12 °F 7%  in 31 mi South 5.8 mph - -   Clear
1:55 PM 28.4 °F 18.5 °F -13.0 °F 16% 30.01 in - South 11.5 mph - N/A   Clear
2:55 PM 28.4 °F 18.0 °F -16.6 °F 13% 30.01 in - South 12.7 mph - N/A   Clear
3:55 PM 26.6 °F 17.5 °F -18.4 °F 13% 30.01 in - South 9.2 mph - N/A   Clear
4:00 PM 27 °F - -19 °F 4%  in 31 mi South 9.2 mph - -   Clear
4:55 PM 24.8 °F 14.6 °F -22.0 °F 12% 30.01 in - SSW 10.4 mph - N/A   Clear
5:55 PM 26.6 °F 17.5 °F -16.6 °F 14% 30.04 in - South 9.2 mph - N/A   Clear
6:55 PM 24.8 °F 12.9 °F -22.0 °F 12% 29.98 in - South 13.8 mph - N/A   Clear
7:00 PM 25 °F - -22 °F 4%  in 6 mi South 13.8 mph - -  
7:55 PM 24.8 °F 12.9 °F -22.0 °F 12% 29.95 in - South 13.8 mph - N/A   Clear
8:55 PM 24.8 °F 19.1 °F -22.0 °F 12% 29.95 in - South 4.6 mph - N/A   Clear
9:55 PM 24.8 °F 16.1 °F -22.0 °F 12% 29.95 in - South 8.1 mph - N/A   Clear
10:00 PM 25 °F - -22 °F 4%  in 6 mi South 8.1 mph - -  
10:55 PM 24.8 °F 16.9 °F -22.0 °F 12% 29.95 in - South 6.9 mph - N/A   Clear
11:55 PM 23.0 °F 12.4 °F -22.0 °F 13% 29.95 in - South 10.4 mph - N/A   Clear